Theta_e
352 345 340 340 346 348 347 347 349 350 350 352 351 351 350 349 348 348 348 347 347 343 343 342 344 341 333 341 337 341 343 343 341 341 342 343 341 339 340 341 338 341 340
348 345 342 339 340 343 348 347 350 349 348 350 352 350 351 351 351 350 348 348 346 346 344 344 341 342 334 340 344 339 343 344 344 342 339 340 341 340 339 338 342 340 340
350 345 345 346 337 338 338 336 348 349 349 348 348 351 349 349 350 350 349 348 348 346 344 343 343 341 335 339 344 345 341 341 341 343 341 338 339 339 340 338 339 339 338
351 351 349 348 346 336 333 340 348 347 349 349 348 348 350 348 349 349 349 350 346 347 347 342 342 341 337 338 339 343 346 344 341 341 342 341 338 339 337 339 338 339 337
351 350 347 348 349 345 343 345 348 348 347 348 348 347 348 348 348 349 351 351 350 349 348 348 344 342 341 341 342 340 336 345 345 341 340 340 340 340 338 338 338 337 338
351 349 349 349 349 346 348 349 348 347 345 344 343 344 346 347 349 349 351 350 349 348 350 348 348 344 342 342 341 342 341 338 345 344 342 341 341 341 340 340 339 338 338
351 349 349 348 348 348 348 349 348 346 346 345 347 346 343 343 344 350 350 350 350 352 348 349 349 346 345 343 342 342 343 342 341 345 342 337 337 339 339 340 340 339 338
349 350 350 350 349 348 347 347 348 347 349 346 346 344 344 339 341 348 350 350 352 351 350 350 348 351 345 344 344 346 344 342 343 342 343 342 337 335 336 338 339 339 340
346 345 346 346 349 348 348 346 346 347 347 346 346 344 343 341 339 349 351 350 350 349 350 349 349 352 348 345 348 347 348 347 348 346 342 342 342 339 337 339 338 339 340
345 345 345 345 346 346 349 346 346 346 345 345 345 346 344 343 347 348 347 349 350 349 349 347 347 347 349 349 349 349 349 348 348 348 346 343 341 340 339 339 339 338 338
347 345 345 345 346 345 345 348 348 346 344 344 345 344 345 342 344 346 351 345 348 349 351 349 345 348 351 351 349 349 349 350 349 349 347 344 343 341 340 341 339 340 339
345 345 346 345 344 347 346 345 346 346 345 344 341 345 344 344 343 346 350 345 343 342 344 348 349 350 350 350 349 347 347 347 347 348 347 346 345 344 343 343 342 340 340
345 346 346 346 346 346 346 346 347 346 345 344 341 344 344 344 343 344 346 343 343 342 341 344 344 345 346 346 348 347 348 348 348 346 345 345 344 344 343 342 342 342 340
344 346 344 345 344 345 345 345 345 345 345 345 343 345 346 344 342 343 345 346 349 342 342 343 342 348 346 347 346 346 348 346 346 345 343 343 343 342 342 343 343 342 341
345 345 344 344 345 345 345 346 345 345 344 346 345 343 345 343 343 342 342 344 345 345 345 343 341 343 345 343 340 342 344 342 341 341 341 341 341 341 342 341 341 342 342
343 342 343 344 344 345 346 346 347 346 346 346 345 346 346 345 345 345 345 344 343 344 344 339 341 343 341 338 337 338 338 338 338 338 338 339 339 339 339 340 339 339 339
341 341 341 342 343 345 345 346 345 345 345 344 343 343 344 346 346 343 344 345 344 346 346 343 340 342 338 336 334 332 331 333 333 333 334 335 336 337 337 337 337 336 335
342 341 340 340 340 341 342 342 341 340 341 341 342 342 343 342 344 345 346 346 345 345 345 343 342 336 333 330 329 329 327 326 329 330 331 331 331 332 332 333 334 333 331
341 340 339 338 340 341 340 339 337 335 334 334 335 336 337 338 337 337 337 338 339 340 338 338 337 333 327 327 326 326 325 324 323 324 326 327 328 329 330 330 330 329 329
340 338 338 337 338 338 337 336 336 334 331 330 331 331 331 332 332 333 333 334 335 335 334 333 331 329 327 326 325 323 321 320 319 319 318 319 321 322 322 324 324 324 323
339 338 336 336 335 334 334 336 334 333 332 328 327 329 329 329 330 330 332 332 332 332 332 332 330 327 326 325 325 323 318 317 316 317 316 316 317 316 315 315 314 317 317
338 337 336 334 334 330 331 332 333 333 331 331 330 329 327 325 326 327 328 329 330 331 330 327 325 323 323 323 323 322 318 318 316 315 314 313 312 312 311 309 309 309 311
336 336 334 334 332 327 328 330 331 331 331 329 328 326 325 323 325 323 323 323 321 324 326 326 324 322 322 321 323 321 320 320 317 315 315 312 312 311 311 311 310 310 308
335 334 333 331 329 324 326 325 328 329 328 327 326 326 325 322 321 321 318 315 313 315 318 319 319 319 320 322 321 322 321 318 316 316 316 313 312 311 311 311 311 310 309
334 332 332 331 329 324 323 324 326 327 326 325 321 320 320 318 318 320 319 316 313 310 307 307 306 306 312 315 315 320 321 321 319 319 318 317 313 312 310 310 309 310 309
333 331 330 328 325 324 321 323 323 326 324 321 318 315 314 315 318 321 322 321 319 318 317 315 313 311 311 309 309 312 314 317 318 317 315 317 316 315 314 313 312 311 310
Wind_Speed
10 8 7 9 13 11 10 21 17 13 12 11 11 12 12 12 14 13 10 11 11 12 14 15 15 14 13 16 15 17 15 15 15 15 14 14 13 12 12 12 12 11 11
14 15 13 13 16 10 8 25 14 13 11 12 14 12 13 14 13 14 12 15 16 15 16 19 18 19 18 16 16 18 17 17 18 17 15 16 16 15 14 14 14 14 14
15 16 14 14 17 18 14 17 18 9 11 12 11 12 12 15 15 15 16 14 17 19 18 22 23 24 22 19 18 19 20 20 21 19 18 18 18 17 17 17 17 17 16
15 14 14 14 14 11 13 25 22 10 10 10 14 16 12 14 14 15 16 15 16 19 20 24 28 27 26 20 18 19 21 22 23 22 21 20 20 20 19 19 19 20 18
17 17 17 14 14 16 19 22 21 14 14 13 14 13 15 13 14 15 16 17 19 17 20 23 26 26 27 25 21 22 24 24 24 23 24 22 22 21 21 21 21 21 22
15 18 18 18 18 19 22 24 23 21 18 19 16 16 15 18 14 15 16 19 21 21 20 18 22 22 29 29 21 24 26 26 26 24 23 22 23 23 22 23 23 23 24
16 16 19 16 18 21 22 17 19 17 18 14 8 12 19 18 18 15 15 16 18 18 20 24 16 18 27 32 27 27 28 26 25 26 25 26 24 24 25 24 25 26 26
14 15 18 18 18 20 21 21 15 13 16 14 14 18 10 17 22 20 17 17 16 17 18 20 18 17 21 20 26 32 30 28 25 27 28 29 30 30 29 29 25 27 28
12 14 15 16 16 19 21 20 20 18 16 16 19 13 5 7 8 10 13 14 14 15 16 16 17 15 18 21 21 25 25 23 23 27 29 30 31 31 31 29 28 28 28
9 11 14 15 17 16 18 19 20 20 19 16 11 17 17 13 2 3 5 14 12 13 13 13 14 15 16 17 19 19 19 21 20 20 25 28 30 33 30 30 31 31 28
7 8 11 12 14 15 15 16 16 19 18 16 14 12 15 17 11 6 4 3 5 10 17 18 14 20 20 19 14 15 18 22 20 18 20 23 28 30 31 31 32 34 35
10 9 10 10 11 12 13 14 16 16 16 15 17 14 13 11 11 12 5 4 5 5 9 10 12 18 13 17 19 7 9 11 15 17 18 20 23 27 28 29 31 34 35
15 12 11 10 9 9 9 11 10 12 14 14 17 15 16 17 10 9 9 9 6 4 6 9 10 3 4 12 9 5 7 11 14 15 17 18 18 21 24 26 28 28 31
13 13 12 9 8 6 5 5 7 10 11 13 15 16 15 16 12 13 13 9 5 10 8 9 8 5 5 7 13 11 8 12 13 12 13 14 16 17 19 20 24 27 28
12 14 13 10 8 5 3 6 7 7 7 10 14 16 14 14 14 13 9 13 9 5 5 2 1 3 3 5 8 6 10 12 10 7 8 8 9 11 12 11 15 22 21
12 14 13 11 10 8 5 4 4 5 5 4 5 7 9 10 11 10 12 12 10 10 5 5 2 3 4 5 7 5 4 5 6 6 6 6 5 6 6 5 4 5 8
12 13 12 11 10 11 13 11 9 7 7 5 3 1 3 5 7 8 9 8 8 10 8 4 3 4 5 3 3 4 6 9 11 13 13 12 9 6 5 4 3 4 5
11 12 12 14 13 13 12 12 12 11 11 10 8 3 3 4 4 5 4 4 3 4 2 6 3 4 4 5 6 8 10 14 13 11 9 10 8 8 8 5 4 4 4
10 12 13 13 13 13 13 14 15 15 14 15 13 10 10 8 6 6 5 4 2 2 3 3 4 6 6 7 10 10 10 11 13 12 8 6 7 7 7 6 7 7 7
9 11 12 12 13 14 14 13 13 13 14 15 15 14 13 12 10 9 10 9 7 9 10 13 10 9 8 7 5 7 10 10 12 13 15 15 13 14 15 13 11 10 11
8 10 11 11 10 11 11 11 13 13 13 14 16 16 16 14 14 12 11 10 10 10 10 12 12 11 10 5 4 3 7 9 11 9 10 11 10 10 11 9 10 7 6
6 8 9 10 9 9 10 10 9 10 11 11 12 12 12 14 17 16 13 10 8 7 7 8 7 8 5 4 3 4 8 3 3 4 8 12 10 12 11 12 10 10 9
6 6 7 7 9 9 10 11 10 9 10 11 11 11 13 14 14 15 19 20 20 16 12 11 10 8 6 4 4 6 3 4 3 7 9 10 8 10 7 7 6 7 7
5 6 6 7 7 8 9 11 10 9 11 12 12 11 11 11 13 13 14 17 17 17 14 13 12 10 9 9 8 8 8 10 7 4 5 3 2 4 4 4 5 6 6
6 6 6 6 6 6 8 6 8 7 9 10 10 12 10 10 11 11 10 13 14 15 18 18 17 15 11 6 3 7 3 4 4 6 3 5 4 3 2 3 2 2 3
8 8 8 8 7 6 6 4 4 4 7 9 10 10 9 9 7 7 7 6 8 8 7 7 8 9 10 12 9 11 9 2 3 6 3 2 7 7 3 3 4 1 4
Wind_Direction
225 218 228 249 254 246 239 264 211 184 195 202 211 220 229 235 241 246 256 255 247 224 224 216 214 211 227 238 236 236 235 234 232 230 226 225 226 229 218 223 218 223 212
239 241 252 279 249 261 308 275 206 195 191 208 205 213 229 236 233 236 235 246 241 237 229 220 216 214 224 237 240 240 239 235 238 235 231 230 229 230 229 230 227 223 227
240 254 267 276 257 265 277 217 270 194 202 220 222 204 225 237 238 237 238 244 244 240 232 217 217 213 214 232 244 242 243 243 240 240 239 236 236 237 236 233 230 235 232
237 240 249 257 256 290 257 250 259 242 240 260 231 226 214 236 239 239 237 235 238 229 230 221 217 219 217 228 233 244 246 245 247 243 243 242 240 241 241 240 239 237 237
241 238 249 246 235 246 245 250 251 230 222 239 258 242 227 219 243 246 238 237 243 245 227 228 225 227 225 229 233 241 244 248 245 246 246 245 245 245 246 244 243 244 243
241 245 242 240 240 235 231 224 224 227 228 235 239 245 244 232 226 240 242 239 240 238 244 245 229 230 229 234 235 238 239 242 245 241 247 252 252 254 252 250 246 247 248
258 253 248 243 237 238 242 243 234 229 248 252 260 255 253 242 232 227 239 237 239 235 239 240 217 206 218 233 243 245 243 244 243 243 235 239 245 250 251 248 248 249 248
274 268 262 256 249 241 242 246 243 231 238 239 233 242 251 243 223 211 216 230 232 230 235 239 232 230 228 237 251 251 244 241 247 246 242 241 241 247 251 252 248 248 249
284 277 272 268 260 246 238 235 235 225 227 227 223 240 251 249 271 173 199 223 231 228 235 235 231 235 232 234 240 242 243 245 249 249 249 245 246 249 251 252 248 247 247
295 294 280 271 264 257 244 232 229 224 220 225 219 237 254 294 300 279 298 224 231 237 242 237 249 249 243 227 234 232 241 247 243 248 252 249 249 249 252 252 250 247 245
271 300 302 280 264 257 254 238 229 225 223 232 225 238 245 232 225 260 272 266 236 241 238 209 210 225 229 217 225 241 249 252 248 254 258 254 252 251 251 253 251 249 248
2 336 325 308 291 263 249 246 234 220 221 229 228 237 242 235 218 227 236 278 240 281 290 267 214 215 238 232 251 226 274 272 264 267 265 262 256 253 254 258 253 251 251
342 334 328 324 315 289 255 251 234 213 214 220 221 231 236 243 231 210 217 233 242 298 297 303 347 344 309 0 353 323 304 290 278 276 268 264 264 262 261 261 259 258 255
344 342 335 331 337 329 259 229 227 229 222 224 232 237 233 232 239 206 215 229 261 246 267 272 336 357 15 339 317 349 299 273 274 271 269 268 270 271 269 268 262 261 262
354 353 351 352 351 334 265 222 235 229 232 233 232 232 231 226 240 260 249 223 225 251 255 312 282 286 227 28 345 335 311 314 332 310 290 296 283 281 282 286 275 265 262
10 10 2 359 6 3 358 268 232 241 226 224 214 207 219 231 234 241 245 249 224 242 249 231 167 203 324 331 341 337 314 348 357 2 356 350 341 341 325 303 301 281 280
27 22 16 22 26 30 43 65 61 57 73 74 77 144 234 240 254 256 253 252 248 238 251 264 179 106 94 97 29 64 69 78 66 50 48 41 27 15 15 9 11 345 314
39 37 31 37 41 46 52 64 66 68 74 68 58 49 18 305 287 280 288 279 271 257 253 267 145 93 103 88 91 91 71 65 64 47 30 18 5 23 33 24 54 58 37
52 48 42 43 48 52 58 66 70 69 68 71 68 68 63 49 43 47 39 28 12 96 98 89 97 118 105 111 109 97 83 71 75 74 71 89 103 94 100 104 104 98 96
54 51 47 48 53 59 59 65 72 75 74 72 75 72 64 60 56 55 64 64 81 88 94 101 100 99 109 116 112 100 78 79 76 75 72 72 77 87 83 79 81 82 79
55 61 54 42 43 49 52 62 70 77 80 79 76 73 66 62 61 64 74 77 72 87 95 92 88 91 89 86 82 127 107 96 81 80 76 63 63 70 68 66 68 78 75
66 65 61 61 52 53 64 76 69 73 75 76 78 79 73 62 66 66 69 75 82 70 78 84 85 82 69 71 71 130 137 128 95 70 64 63 55 57 50 57 53 50 55
96 82 73 66 64 59 71 77 68 69 73 75 78 84 84 78 77 74 67 68 67 66 74 82 89 70 51 34 72 110 100 89 100 129 104 75 79 80 58 51 44 41 49
124 110 96 87 72 69 86 86 77 73 79 79 78 78 84 84 84 79 79 76 71 73 73 79 80 77 71 63 77 93 108 104 103 127 132 107 93 70 70 52 42 50 60
145 127 109 101 88 76 103 82 70 79 79 75 72 84 78 83 96 87 86 89 87 83 72 69 70 70 74 89 71 221 171 195 150 143 181 134 154 131 118 69 31 40 44
156 139 118 95 101 91 118 120 24 114 102 96 85 74 81 95 95 70 86 90 91 88 88 84 63 56 53 43 36 32 356 23 116 130 72 143 169 173 173 170 176 244 7